| time (UTC) | temp F | wind direction | speed knots | gust knots | rain 1hr in | rain 24hr in | rain mn in | humidity % | barometer mb |
| 20260507140943 | 47 | 19 | 0.9 | 5.2 | 0.00 | 1.25 | 0.93 | 94 | 1016.6 |
| 20260507140443 | 47 | 323 | 0.9 | 2.6 | 0.00 | 1.25 | 0.93 | 94 | 1016.6 |
| 20260507135943 | 47 | 322 | 0.9 | 3.5 | 0.00 | 1.25 | 0.93 | 94 | 1016.6 |
| 20260507135443 | 47 | 23 | 0.9 | 4.3 | 0.00 | 1.25 | 0.93 | 94 | 1016.5 |
| 20260507134943 | 47 | 25 | 0.9 | 5.2 | 0.00 | 1.25 | 0.93 | 94 | 1016.5 |
| 20260507134443 | 47 | 344 | 0.9 | 5.2 | 0.00 | 1.25 | 0.93 | 94 | 1016.4 |
| 20260507133943 | 48 | 17 | 0.0 | 1.7 | 0.00 | 1.25 | 0.93 | 94 | 1016.3 |
| 20260507133443 | 48 | 124 | 0.9 | 2.6 | 0.00 | 1.25 | 0.93 | 94 | 1016.4 |
| 20260507132943 | 47 | 343 | 1.7 | 4.3 | 0.00 | 1.25 | 0.93 | 94 | 1016.2 |
| 20260507132444 | 48 | 53 | 0.9 | 5.2 | 0.00 | 1.25 | 0.93 | 94 | 1016.2 |
| 20260507131943 | 48 | 352 | 1.7 | 3.5 | 0.00 | 1.25 | 0.93 | 94 | 1016.2 |
| 20260507131443 | 48 | 19 | 1.7 | 5.2 | 0.00 | 1.25 | 0.93 | 94 | 1016.2 |
| 20260507130943 | 48 | 23 | 0.9 | 7.0 | 0.00 | 1.25 | 0.93 | 94 | 1016.1 |
| 20260507130443 | 48 | 256 | 0.9 | 2.6 | 0.00 | 1.25 | 0.93 | 94 | 1015.9 |
| 20260507125943 | 49 | 164 | 0.9 | 5.2 | 0.00 | 1.25 | 0.93 | 94 | 1016.0 |
| 20260507125443 | 48 | 45 | 1.7 | 4.3 | 0.01 | 1.25 | 0.93 | 94 | 1015.8 |
| 20260507124943 | 48 | 27 | 2.6 | 6.1 | 0.01 | 1.25 | 0.93 | 94 | 1015.8 |
| 20260507124443 | 48 | 41 | 2.6 | 6.1 | 0.01 | 1.25 | 0.93 | 94 | 1015.8 |
| 20260507123943 | 48 | 19 | 2.6 | 7.0 | 0.01 | 1.25 | 0.93 | 94 | 1015.7 |
| 20260507123443 | 48 | 36 | 2.6 | 6.1 | 0.01 | 1.25 | 0.93 | 94 | 1015.6 |
| 20260507122943 | 48 | 29 | 3.5 | 5.2 | 0.01 | 1.25 | 0.93 | 94 | 1015.6 |
| 20260507122443 | 48 | 72 | 2.6 | 7.8 | 0.02 | 1.25 | 0.93 | 94 | 1015.6 |
| 20260507121943 | 48 | 37 | 1.7 | 7.8 | 0.02 | 1.25 | 0.93 | 94 | 1015.6 |
| 20260507121443 | 48 | 35 | 1.7 | 5.2 | 0.03 | 1.25 | 0.93 | 94 | 1015.6 |
| 20260507120943 | 48 | 26 | 0.9 | 5.2 | 0.04 | 1.25 | 0.93 | 94 | 1015.5 |
| 20260507120443 | 48 | 15 | 1.7 | 6.1 | 0.04 | 1.25 | 0.93 | 94 | 1015.3 |
| 20260507115943 | 48 | 58 | 2.6 | 7.0 | 0.05 | 1.25 | 0.93 | 94 | 1015.3 |
| 20260507115443 | 48 | 29 | 2.6 | 5.2 | 0.05 | 1.24 | 0.92 | 94 | 1015.3 |
| 20260507114943 | 48 | 34 | 2.6 | 7.8 | 0.06 | 1.24 | 0.92 | 94 | 1015.3 |
| 20260507114443 | 48 | 42 | 2.6 | 6.1 | 0.06 | 1.24 | 0.92 | 94 | 1015.2 |
| 20260507113943 | 48 | 37 | 2.6 | 7.0 | 0.07 | 1.24 | 0.92 | 94 | 1015.3 |
| 20260507113444 | 49 | 13 | 2.6 | 4.3 | 0.09 | 1.24 | 0.92 | 94 | 1015.1 |
| 20260507112943 | 48 | 18 | 2.6 | 7.8 | 0.10 | 1.24 | 0.92 | 94 | 1015.1 |
| 20260507112444 | 48 | 299 | 3.5 | 6.1 | 0.10 | 1.23 | 0.91 | 94 | 1015.1 |
| 20260507111944 | 48 | 84 | 2.6 | 8.7 | 0.11 | 1.23 | 0.91 | 94 | 1015.0 |
| 20260507111444 | 48 | 61 | 0.9 | 5.2 | 0.10 | 1.22 | 0.90 | 94 | 1015.0 |
| 20260507110944 | 48 | 11 | 0.9 | 5.2 | 0.09 | 1.21 | 0.89 | 94 | 1015.1 |
| 20260507110444 | 48 | 256 | 0.9 | 4.3 | 0.09 | 1.21 | 0.89 | 94 | 1015.0 |
| 20260507105944 | 48 | 13 | 0.0 | 5.2 | 0.09 | 1.20 | 0.88 | 94 | 1014.9 |
| 20260507105444 | 48 | 27 | 0.9 | 1.7 | 0.09 | 1.19 | 0.87 | 94 | 1014.8 |
| 20260507104944 | 48 | 6 | 0.9 | 4.3 | 0.08 | 1.18 | 0.86 | 94 | 1014.8 |
| 20260507104444 | 48 | 14 | 0.9 | 1.7 | 0.08 | 1.18 | 0.86 | 94 | 1014.8 |
| 20260507103944 | 48 | 262 | 0.9 | 3.5 | 0.07 | 1.17 | 0.85 | 94 | 1014.6 |
| 20260507103444 | 48 | 300 | 0.9 | 4.3 | 0.05 | 1.15 | 0.83 | 94 | 1014.5 |
| 20260507102944 | 48 | 266 | 1.7 | 5.2 | 0.04 | 1.14 | 0.82 | 94 | 1014.5 |
| 20260507102444 | 48 | 27 | 2.6 | 6.1 | 0.04 | 1.13 | 0.81 | 94 | 1014.2 |
| 20260507101944 | 48 | 44 | 2.6 | 6.1 | 0.03 | 1.12 | 0.80 | 94 | 1014.1 |
| 20260507101444 | 49 | 11 | 2.6 | 7.8 | 0.04 | 1.12 | 0.80 | 94 | 1014.0 |
| 20260507100944 | 49 | 17 | 1.7 | 7.0 | 0.04 | 1.12 | 0.80 | 94 | 1014.0 |
| 20260507100444 | 49 | 50 | 2.6 | 6.1 | 0.05 | 1.12 | 0.80 | 94 | 1013.9 |
| 20260507095944 | 49 | 33 | 3.5 | 7.8 | 0.04 | 1.11 | 0.79 | 94 | 1013.8 |
| 20260507095444 | 49 | 32 | 3.5 | 8.7 | 0.03 | 1.10 | 0.78 | 94 | 1013.8 |
| 20260507094944 | 49 | 27 | 3.5 | 7.8 | 0.03 | 1.10 | 0.78 | 94 | 1013.8 |
| 20260507094444 | 49 | 30 | 3.5 | 8.7 | 0.03 | 1.10 | 0.78 | 94 | 1013.7 |
| 20260507093944 | 49 | 46 | 4.3 | 7.0 | 0.03 | 1.10 | 0.78 | 94 | 1013.7 |
| 20260507093444 | 49 | 39 | 4.3 | 7.0 | 0.03 | 1.10 | 0.78 | 94 | 1013.6 |
| 20260507092944 | 49 | 56 | 4.3 | 7.8 | 0.03 | 1.10 | 0.78 | 94 | 1013.5 |
| 20260507092444 | 49 | 22 | 3.5 | 7.0 | 0.02 | 1.09 | 0.77 | 94 | 1013.6 |
| 20260507091944 | 49 | 58 | 4.3 | 7.8 | 0.02 | 1.09 | 0.77 | 94 | 1013.5 |
| 20260507091444 | 49 | 31 | 4.3 | 7.0 | 0.02 | 1.08 | 0.76 | 94 | 1013.5 |
| 20260507090944 | 48 | 43 | 4.3 | 7.8 | 0.02 | 1.08 | 0.76 | 94 | 1013.4 |
| 20260507090444 | 49 | 49 | 4.3 | 7.8 | 0.01 | 1.07 | 0.75 | 94 | 1013.4 |
| 20260507085944 | 49 | 33 | 4.3 | 7.8 | 0.01 | 1.07 | 0.75 | 94 | 1013.4 |
| 20260507085444 | 49 | 47 | 5.2 | 8.7 | 0.01 | 1.07 | 0.75 | 94 | 1013.2 |
| 20260507084944 | 49 | 60 | 4.3 | 7.8 | 0.01 | 1.07 | 0.75 | 94 | 1013.1 |
| 20260507084444 | 49 | 55 | 4.3 | 9.6 | 0.01 | 1.07 | 0.75 | 94 | 1013.0 |
| 20260507083944 | 49 | 54 | 4.3 | 7.0 | 0.01 | 1.07 | 0.75 | 94 | 1012.9 |
| 20260507083444 | 49 | 52 | 4.3 | 7.0 | 0.01 | 1.07 | 0.75 | 94 | 1012.9 |
| 20260507082944 | 49 | 32 | 5.2 | 8.7 | 0.01 | 1.07 | 0.75 | 94 | 1012.9 |
| 20260507082444 | 48 | 33 | 4.3 | 8.7 | 0.01 | 1.07 | 0.75 | 94 | 1012.8 |
| 20260507081944 | 49 | 25 | 4.3 | 7.8 | 0.01 | 1.07 | 0.75 | 94 | 1012.9 |
| 20260507081444 | 49 | 352 | 3.5 | 7.0 | 0.00 | 1.06 | 0.74 | 94 | 1012.8 |
| 20260507080944 | 49 | 34 | 3.5 | 6.1 | 0.01 | 1.06 | 0.74 | 94 | 1012.8 |
| 20260507080444 | 49 | 24 | 3.5 | 7.0 | 0.01 | 1.06 | 0.74 | 94 | 1012.7 |
| 20260507075944 | 49 | 50 | 3.5 | 7.8 | 0.01 | 1.06 | 0.74 | 94 | 1012.7 |
| 20260507075444 | 48 | 41 | 3.5 | 6.1 | 0.01 | 1.06 | 0.74 | 94 | 1012.6 |
| 20260507074944 | 48 | 50 | 4.3 | 6.1 | 0.01 | 1.06 | 0.74 | 94 | 1012.7 |
| 20260507074444 | 48 | 20 | 4.3 | 7.8 | 0.01 | 1.06 | 0.74 | 94 | 1012.6 |
| 20260507073944 | 48 | 48 | 3.5 | 8.7 | 0.01 | 1.06 | 0.74 | 94 | 1012.5 |
| 20260507073444 | 48 | 36 | 2.6 | 7.0 | 0.01 | 1.06 | 0.74 | 94 | 1012.5 |
| 20260507072944 | 48 | 56 | 3.5 | 5.2 | 0.01 | 1.06 | 0.74 | 94 | 1012.4 |
| 20260507072444 | 48 | 52 | 3.5 | 7.0 | 0.01 | 1.06 | 0.74 | 94 | 1012.4 |
| 20260507071944 | 48 | 56 | 3.5 | 7.8 | 0.01 | 1.07 | 0.74 | 94 | 1012.4 |
| 20260507071444 | 48 | 18 | 3.5 | 5.2 | 0.02 | 1.07 | 0.74 | 94 | 1012.4 |
| 20260507070944 | 48 | 58 | 3.5 | 6.1 | 0.01 | 1.06 | 0.73 | 94 | 1012.4 |
| 20260507070444 | 48 | 32 | 3.5 | 5.2 | 0.01 | 1.06 | 0.73 | 94 | 1012.4 |
| 20260507065944 | 48 | 29 | 2.6 | 6.1 | 0.02 | 1.06 | 0.73 | 94 | 1012.3 |
| 20260507065444 | 48 | 35 | 3.5 | 5.2 | 0.02 | 1.06 | 0.73 | 94 | 1012.3 |
| 20260507064944 | 48 | 31 | 2.6 | 7.0 | 0.02 | 1.06 | 0.73 | 94 | 1012.3 |
| 20260507064444 | 49 | 42 | 1.7 | 4.3 | 0.03 | 1.06 | 0.73 | 94 | 1012.2 |
| 20260507063944 | 48 | 25 | 2.6 | 4.3 | 0.05 | 1.06 | 0.73 | 94 | 1012.2 |
| 20260507063444 | 48 | 43 | 2.6 | 4.3 | 0.08 | 1.06 | 0.73 | 94 | 1012.1 |
| 20260507062944 | 48 | 56 | 2.6 | 5.2 | 0.09 | 1.06 | 0.73 | 94 | 1012.0 |
| 20260507062444 | 48 | 30 | 2.6 | 5.2 | 0.10 | 1.06 | 0.73 | 94 | 1011.9 |
| 20260507061944 | 48 | 39 | 2.6 | 4.3 | 0.10 | 1.06 | 0.73 | 94 | 1011.9 |
| 20260507061444 | 49 | 44 | 2.6 | 5.2 | 0.09 | 1.05 | 0.72 | 94 | 1011.8 |
| 20260507060944 | 49 | 30 | 2.6 | 5.2 | 0.10 | 1.05 | 0.72 | 94 | 1011.7 |
| 20260507060444 | 49 | 49 | 1.7 | 4.3 | 0.11 | 1.05 | 0.72 | 94 | 1011.7 |
| 20260507055944 | 49 | 32 | 0.0 | 3.5 | 0.11 | 1.04 | 0.71 | 94 | 1011.7 |
| 20260507055444 | 49 | 46 | 0.0 | 1.7 | 0.11 | 1.04 | 0.71 | 94 | 1011.7 |
| 20260507054944 | 49 | 25 | 0.9 | 1.7 | 0.12 | 1.04 | 0.71 | 94 | 1011.6 |
| 20260507054444 | 49 | 34 | 0.9 | 2.6 | 0.12 | 1.03 | 0.70 | 94 | 1011.5 |
| 20260507053944 | 49 | 40 | 0.9 | 3.5 | 0.11 | 1.01 | 0.68 | 94 | 1011.5 |
| 20260507053444 | 49 | 358 | 0.9 | 3.5 | 0.08 | 0.98 | 0.65 | 94 | 1011.4 |
| 20260507052944 | 49 | 60 | 0.9 | 2.6 | 0.08 | 0.97 | 0.64 | 94 | 1011.4 |
| 20260507052444 | 49 | 41 | 0.9 | 3.5 | 0.07 | 0.96 | 0.63 | 94 | 1011.4 |
| 20260507051944 | 49 | 40 | 0.9 | 3.5 | 0.07 | 0.96 | 0.63 | 94 | 1011.3 |
| 20260507051444 | 49 | 41 | 1.7 | 4.3 | 0.08 | 0.96 | 0.63 | 94 | 1011.3 |
| 20260507050944 | 50 | 37 | 1.7 | 5.2 | 0.07 | 0.95 | 0.62 | 94 | 1011.3 |
| 20260507050444 | 50 | 49 | 1.7 | 3.5 | 0.07 | 0.94 | 0.61 | 94 | 1011.2 |
| 20260507045944 | 50 | 30 | 1.7 | 3.5 | 0.07 | 0.93 | 0.60 | 94 | 1011.1 |
| 20260507045444 | 50 | 46 | 0.9 | 3.5 | 0.08 | 0.93 | 0.60 | 94 | 1011.1 |
| 20260507044944 | 50 | 32 | 0.9 | 2.6 | 0.08 | 0.92 | 0.59 | 94 | 1011.0 |
| 20260507044444 | 50 | 37 | 0.9 | 1.7 | 0.09 | 0.91 | 0.58 | 94 | 1011.0 |
| 20260507043945 | 50 | 30 | 0.9 | 1.7 | 0.10 | 0.90 | 0.57 | 94 | 1010.9 |
| 20260507043445 | 50 | 46 | 0.9 | 2.6 | 0.11 | 0.90 | 0.57 | 94 | 1010.9 |
| 20260507042945 | 50 | 59 | 0.9 | 0.9 | 0.11 | 0.89 | 0.56 | 94 | 1010.8 |
| 20260507042445 | 50 | 68 | 0.0 | 1.7 | 0.12 | 0.89 | 0.56 | 94 | 1010.8 |
| 20260507041945 | 50 | 96 | 0.0 | 0.9 | 0.14 | 0.89 | 0.56 | 94 | 1010.7 |
| 20260507041445 | 50 | 98 | 0.0 | 0.0 | 0.14 | 0.88 | 0.55 | 94 | 1010.6 |
| 20260507040945 | 50 | 98 | 0.0 | 0.0 | 0.15 | 0.88 | 0.55 | 94 | 1010.6 |
| 20260507040445 | 50 | 98 | 0.0 | 0.0 | 0.15 | 0.87 | 0.54 | 94 | 1010.6 |
| 20260507035945 | 50 | 98 | 0.0 | 0.0 | 0.15 | 0.86 | 0.53 | 94 | 1010.6 |
| 20260507035445 | 50 | 98 | 0.0 | 0.9 | 0.15 | 0.85 | 0.52 | 94 | 1010.5 |
| 20260507034945 | 50 | 99 | 0.0 | 0.9 | 0.15 | 0.84 | 0.51 | 94 | 1010.6 |
| 20260507034445 | 50 | 90 | 0.0 | 0.0 | 0.14 | 0.82 | 0.49 | 94 | 1010.6 |
| 20260507033945 | 50 | 86 | 0.0 | 0.0 | 0.13 | 0.80 | 0.47 | 94 | 1010.5 |
| 20260507033445 | 50 | 93 | 0.0 | 0.9 | 0.14 | 0.79 | 0.46 | 94 | 1010.5 |
| 20260507032945 | 50 | 103 | 0.0 | 1.7 | 0.14 | 0.78 | 0.45 | 94 | 1010.5 |
| 20260507032445 | 50 | 91 | 0.0 | 0.9 | 0.14 | 0.77 | 0.44 | 94 | 1010.5 |
| 20260507031945 | 50 | 103 | 0.0 | 1.7 | 0.14 | 0.75 | 0.42 | 94 | 1010.5 |
| 20260507031445 | 50 | 94 | 0.0 | 0.9 | 0.14 | 0.74 | 0.41 | 94 | 1010.5 |
| 20260507030945 | 50 | 93 | 0.0 | 1.7 | 0.15 | 0.73 | 0.40 | 94 | 1010.5 |
| 20260507030445 | 50 | 102 | 0.0 | 0.9 | 0.16 | 0.72 | 0.39 | 94 | 1010.4 |
| 20260507025945 | 50 | 60 | 0.0 | 0.9 | 0.17 | 0.71 | 0.38 | 94 | 1010.3 |
| 20260507025445 | 50 | 46 | 0.0 | 0.9 | 0.18 | 0.70 | 0.37 | 94 | 1010.4 |
| 20260507024945 | 50 | 41 | 0.9 | 1.7 | 0.19 | 0.69 | 0.36 | 94 | 1010.3 |
| 20260507024445 | 50 | 43 | 0.9 | 3.5 | 0.20 | 0.68 | 0.35 | 94 | 1010.3 |
| 20260507023945 | 50 | 40 | 0.9 | 1.7 | 0.20 | 0.67 | 0.34 | 94 | 1010.3 |
| 20260507023445 | 50 | 42 | 0.9 | 2.6 | 0.19 | 0.65 | 0.32 | 94 | 1010.3 |
| 20260507022945 | 50 | 65 | 0.0 | 1.7 | 0.19 | 0.64 | 0.31 | 94 | 1010.4 |
| 20260507022445 | 50 | 63 | 0.0 | 1.7 | 0.18 | 0.63 | 0.30 | 94 | 1010.4 |
| 20260507021945 | 50 | 333 | 0.0 | 0.0 | 0.17 | 0.61 | 0.28 | 94 | 1010.4 |
| 20260507021445 | 50 | 28 | 0.0 | 0.0 | 0.17 | 0.60 | 0.27 | 94 | 1010.4 |
| 20260507020945 | 50 | 25 | 0.0 | 0.9 | 0.16 | 0.58 | 0.25 | 94 | 1010.4 |
| 20260507020445 | 50 | 25 | 0.0 | 0.9 | 0.14 | 0.56 | 0.23 | 94 | 1010.4 |
| 20260507015945 | 51 | 24 | 0.0 | 0.9 | 0.13 | 0.54 | 0.21 | 94 | 1010.4 |
| 20260507015445 | 51 | 20 | 0.0 | 0.9 | 0.12 | 0.52 | 0.19 | 94 | 1010.3 |
| 20260507014945 | 51 | 17 | 0.0 | 0.0 | 0.11 | 0.50 | 0.17 | 94 | 1010.4 |
| 20260507014445 | 51 | 288 | 0.0 | 0.0 | 0.09 | 0.48 | 0.15 | 94 | 1010.4 |
| 20260507013945 | 51 | 288 | 0.0 | 0.0 | 0.10 | 0.47 | 0.14 | 94 | 1010.3 |
| 20260507013445 | 51 | 288 | 0.0 | 0.9 | 0.10 | 0.46 | 0.13 | 94 | 1010.4 |
| 20260507012945 | 51 | 193 | 0.0 | 0.0 | 0.11 | 0.45 | 0.12 | 94 | 1010.3 |
| 20260507012445 | 51 | 193 | 0.0 | 0.9 | 0.11 | 0.45 | 0.12 | 94 | 1010.3 |
| 20260507011945 | 51 | 194 | 0.0 | 0.0 | 0.11 | 0.44 | 0.11 | 94 | 1010.3 |
| 20260507011445 | 51 | 195 | 0.0 | 0.0 | 0.10 | 0.43 | 0.10 | 94 | 1010.3 |
| 20260507010945 | 51 | 194 | 0.0 | 0.0 | 0.09 | 0.42 | 0.09 | 94 | 1010.3 |
| 20260507010445 | 51 | 195 | 0.0 | 0.9 | 0.09 | 0.42 | 0.09 | 94 | 1010.4 |
| 20260507005945 | 51 | 193 | 0.0 | 0.0 | 0.08 | 0.41 | 0.08 | 94 | 1010.4 |
| 20260507005445 | 51 | 193 | 0.0 | 0.0 | 0.07 | 0.40 | 0.07 | 94 | 1010.3 |
| 20260507004945 | 51 | 193 | 0.0 | 0.9 | 0.06 | 0.39 | 0.06 | 94 | 1010.4 |
| 20260507004445 | 51 | 193 | 0.0 | 0.0 | 0.06 | 0.39 | 0.06 | 94 | 1010.3 |
| 20260507003945 | 51 | 193 | 0.0 | 0.0 | 0.04 | 0.37 | 0.04 | 94 | 1010.3 |
| 20260507003445 | 51 | 194 | 0.0 | 0.9 | 0.03 | 0.36 | 0.03 | 93 | 1010.2 |
| 20260507002945 | 51 | 191 | 0.0 | 0.0 | 0.01 | 0.34 | 0.01 | 93 | 1010.3 |
| 20260507002445 | 51 | 191 | 0.0 | 0.0 | 0.01 | 0.34 | 0.01 | 93 | 1010.2 |
| 20260507001945 | 51 | 191 | 0.0 | 0.0 | 0.00 | 0.33 | 0.00 | 93 | 1010.1 |
| 20260507001445 | 51 | 106 | 0.0 | 0.0 | 0.00 | 0.33 | 0.00 | 93 | 1010.1 |
| 20260507000945 | 51 | 106 | 0.0 | 0.0 | 0.00 | 0.33 | 0.00 | 93 | 1010.0 |
| 20260507000445 | 51 | 106 | 0.0 | 0.0 | 0.00 | 0.33 | 0.00 | 93 | 1010.0 |
| 20260506235945 | 51 | 106 | 0.0 | 0.0 | 0.00 | 0.33 | 0.00 | 93 | 1009.9 |
| 20260506235445 | 51 | 106 | 0.0 | 0.0 | 0.00 | 0.33 | 0.00 | 93 | 1009.9 |
| 20260506234945 | 51 | 106 | 0.0 | 0.0 | 0.00 | 0.33 | 0.00 | 93 | 1009.9 |
| 20260506234445 | 51 | 106 | 0.0 | 0.0 | 0.00 | 0.33 | 0.00 | 93 | 1009.9 |
| 20260506233945 | 51 | 106 | 0.0 | 0.0 | 0.00 | 0.33 | 0.00 | 93 | 1009.8 |
| 20260506233445 | 51 | 106 | 0.0 | 0.0 | 0.00 | 0.33 | 0.00 | 93 | 1009.8 |
| 20260506232945 | 51 | 106 | 0.0 | 0.0 | 0.00 | 0.33 | 0.00 | 93 | 1009.7 |
| 20260506232445 | 51 | 106 | 0.0 | 0.0 | 0.00 | 0.33 | 0.00 | 93 | 1009.6 |
| 20260506231945 | 51 | 106 | 0.0 | 0.0 | 0.00 | 0.33 | 0.00 | 93 | 1009.6 |
| 20260506231445 | 51 | 106 | 0.0 | 0.0 | 0.00 | 0.33 | 0.00 | 93 | 1009.4 |
| 20260506230945 | 51 | 127 | 0.0 | 0.0 | 0.00 | 0.33 | 0.00 | 93 | 1009.4 |
| 20260506230445 | 51 | 103 | 0.0 | 0.0 | 0.00 | 0.33 | 0.00 | 93 | 1009.4 |
| 20260506225945 | 51 | 103 | 0.0 | 0.0 | 0.00 | 0.33 | 0.00 | 93 | 1009.3 |
| 20260506225445 | 51 | 103 | 0.0 | 0.0 | 0.00 | 0.33 | 0.00 | 93 | 1009.3 |
| 20260506224945 | 51 | 103 | 0.0 | 0.9 | 0.00 | 0.33 | 0.00 | 93 | 1009.3 |
| 20260506224446 | 51 | 58 | 0.9 | 2.6 | 0.00 | 0.33 | 0.00 | 93 | 1009.4 |
| 20260506223945 | 51 | 51 | 0.0 | 1.7 | 0.00 | 0.33 | 0.00 | 93 | 1009.4 |
| 20260506223445 | 51 | 53 | 0.0 | 2.6 | 0.00 | 0.33 | 0.00 | 93 | 1009.3 |
| 20260506222945 | 51 | 80 | 0.9 | 1.7 | 0.00 | 0.33 | 0.00 | 93 | 1009.3 |
| 20260506222445 | 51 | 89 | 0.9 | 3.5 | 0.00 | 0.33 | 0.00 | 93 | 1009.3 |
| 20260506221945 | 51 | 86 | 0.9 | 2.6 | 0.00 | 0.34 | 0.00 | 93 | 1009.3 |
| 20260506221446 | 51 | 37 | 1.7 | 3.5 | 0.00 | 0.34 | 0.00 | 93 | 1009.5 |
| 20260506220945 | 51 | 58 | 1.7 | 4.3 | 0.00 | 0.34 | 0.00 | 93 | 1009.4 |
| 20260506220445 | 51 | 37 | 1.7 | 4.3 | 0.00 | 0.34 | 0.00 | 93 | 1009.5 |
| 20260506215946 | 51 | 75 | 1.7 | 3.5 | 0.01 | 0.34 | 0.37 | 93 | 1009.5 |
| 20260506215446 | 51 | 42 | 0.9 | 3.5 | 0.01 | 0.34 | 0.37 | 93 | 1009.5 |
| 20260506214946 | 51 | 39 | 0.0 | 3.5 | 0.02 | 0.34 | 0.37 | 93 | 1009.6 |
| 20260506214446 | 51 | 37 | 0.0 | 0.9 | 0.09 | 0.34 | 0.37 | 93 | 1009.8 |
| 20260506213946 | 51 | 54 | 0.0 | 0.0 | 0.18 | 0.34 | 0.37 | 93 | 1009.7 |
| 20260506213446 | 51 | 54 | 0.9 | 0.9 | 0.32 | 0.34 | 0.37 | 93 | 1009.7 |
| 20260506212946 | 51 | 54 | 2.6 | 5.2 | 0.32 | 0.34 | 0.37 | 92 | 1009.5 |
| 20260506212446 | 51 | 354 | 3.5 | 7.0 | 0.32 | 0.34 | 0.37 | 92 | 1009.3 |
| 20260506211946 | 51 | 46 | 3.5 | 6.1 | 0.32 | 0.34 | 0.37 | 92 | 1009.2 |
| 20260506211446 | 51 | 68 | 2.6 | 6.1 | 0.32 | 0.59 | 0.37 | 92 | 1009.1 |
| 20260506210946 | 51 | 56 | 2.6 | 7.0 | 0.32 | 0.59 | 0.37 | 92 | 1009.0 |
| 20260506210446 | 51 | 46 | 3.5 | 7.8 | 0.32 | 0.59 | 0.37 | 92 | 1009.2 |
| 20260506205946 | 51 | 18 | 3.5 | 8.7 | 0.31 | 0.58 | 0.36 | 91 | 1009.2 |
| 20260506205446 | 51 | 25 | 2.6 | 9.6 | 0.31 | 0.58 | 0.36 | 91 | 1009.3 |
| 20260506204946 | 52 | 295 | 2.6 | 9.6 | 0.30 | 0.57 | 0.35 | 90 | 1009.3 |
| 20260506204446 | 53 | 191 | 2.6 | 13.9 | 0.23 | 0.50 | 0.28 | 89 | 1009.3 |
| 20260506203946 | 54 | 63 | 1.7 | 6.1 | 0.14 | 0.41 | 0.19 | 87 | 1009.7 |
| 20260506203446 | 55 | 262 | 1.7 | 5.2 | 0.00 | 0.27 | 0.05 | 87 | 1009.6 |
| 20260506202946 | 55 | 184 | 1.7 | 5.2 | 0.00 | 0.27 | 0.05 | 86 | 1009.4 |
| 20260506202446 | 55 | 224 | 1.7 | 6.1 | 0.00 | 0.27 | 0.05 | 86 | 1009.3 |
| 20260506201946 | 56 | 189 | 0.9 | 4.3 | 0.00 | 0.74 | 0.05 | 86 | 1009.3 |
| 20260506201446 | 56 | 245 | 0.0 | 3.5 | 0.00 | 0.74 | 0.05 | 86 | 1009.2 |
| 20260506200946 | 56 | 264 | 0.9 | 0.9 | 0.00 | 0.74 | 0.05 | 86 | 1009.0 |
| 20260506200446 | 56 | 14 | 2.6 | 6.1 | 0.00 | 0.74 | 0.05 | 86 | 1008.7 |
| 20260506195946 | 56 | 47 | 3.5 | 5.2 | 0.00 | 0.74 | 0.05 | 86 | 1008.6 |
| 20260506195446 | 56 | 51 | 3.5 | 7.8 | 0.00 | 0.74 | 0.05 | 85 | 1008.5 |
| 20260506194946 | 56 | 45 | 3.5 | 8.7 | 0.00 | 0.74 | 0.05 | 85 | 1008.4 |
| 20260506194446 | 56 | 63 | 4.3 | 7.8 | 0.00 | 0.74 | 0.05 | 85 | 1008.5 |
| 20260506193946 | 56 | 57 | 4.3 | 7.8 | 0.00 | 0.74 | 0.05 | 85 | 1008.4 |
| 20260506193446 | 56 | 54 | 4.3 | 9.6 | 0.00 | 0.74 | 0.05 | 85 | 1008.5 |
| 20260506192946 | 56 | 31 | 4.3 | 9.6 | 0.00 | 0.74 | 0.05 | 85 | 1008.4 |
| 20260506192446 | 56 | 63 | 4.3 | 7.0 | 0.00 | 0.74 | 0.05 | 85 | 1008.3 |
| 20260506191946 | 57 | 60 | 3.5 | 7.8 | 0.00 | 0.88 | 0.05 | 85 | 1008.2 |
| 20260506191446 | 57 | 60 | 4.3 | 6.1 | 0.00 | 0.88 | 0.05 | 85 | 1008.2 |
| 20260506190946 | 57 | 53 | 4.3 | 7.8 | 0.00 | 0.88 | 0.05 | 84 | 1008.1 |
| 20260506190446 | 57 | 59 | 4.3 | 8.7 | 0.00 | 0.88 | 0.05 | 84 | 1008.0 |
| 20260506185946 | 57 | 34 | 3.5 | 7.0 | 0.00 | 0.88 | 0.05 | 84 | 1007.8 |
| 20260506185446 | 57 | 34 | 4.3 | 6.1 | 0.00 | 0.88 | 0.05 | 84 | 1007.8 |
| 20260506184946 | 57 | 55 | 4.3 | 7.0 | 0.00 | 0.88 | 0.05 | 83 | 1007.7 |
| 20260506184446 | 58 | 44 | 4.3 | 8.7 | 0.00 | 0.88 | 0.05 | 83 | 1007.6 |
| 20260506183946 | 58 | 51 | 4.3 | 7.0 | 0.00 | 0.88 | 0.05 | 83 | 1007.5 |
| 20260506183446 | 58 | 63 | 5.2 | 7.8 | 0.00 | 0.88 | 0.05 | 82 | 1007.5 |
| 20260506182946 | 58 | 56 | 4.3 | 9.6 | 0.00 | 0.88 | 0.05 | 82 | 1007.4 |
| 20260506182446 | 58 | 52 | 3.5 | 7.8 | 0.00 | 0.88 | 0.05 | 83 | 1007.5 |
| 20260506181946 | 58 | 29 | 3.5 | 5.2 | 0.00 | 1.00 | 0.05 | 83 | 1007.5 |
| 20260506181446 | 59 | 38 | 3.5 | 7.0 | 0.00 | 1.00 | 0.05 | 82 | 1007.5 |
| 20260506180946 | 59 | 11 | 4.3 | 7.8 | 0.00 | 1.00 | 0.05 | 81 | 1007.4 |
| 20260506180446 | 59 | 25 | 4.3 | 9.6 | 0.00 | 1.00 | 0.05 | 80 | 1007.3 |
| 20260506175946 | 60 | 49 | 4.3 | 10.4 | 0.00 | 1.00 | 0.05 | 79 | 1007.4 |
| 20260506175446 | 60 | 30 | 4.3 | 8.7 | 0.00 | 1.00 | 0.05 | 79 | 1007.3 |
| 20260506174946 | 61 | 18 | 4.3 | 9.6 | 0.00 | 1.00 | 0.05 | 77 | 1007.3 |
| 20260506174446 | 62 | 34 | 4.3 | 10.4 | 0.00 | 1.00 | 0.05 | 76 | 1007.2 |
| 20260506173946 | 63 | 330 | 2.6 | 10.4 | 0.00 | 1.00 | 0.05 | 74 | 1007.2 |
| 20260506173446 | 66 | 58 | 0.0 | 5.2 | 0.00 | 1.00 | 0.05 | 62 | 1007.1 |
| 20260506172946 | 66 | 257 | 0.0 | 0.9 | 0.00 | 1.00 | 0.05 | 60 | 1006.9 |
| 20260506172446 | 66 | 255 | 0.0 | 0.9 | 0.00 | 1.00 | 0.05 | 60 | 1006.9 |
| 20260506171946 | 67 | 256 | 0.0 | 0.9 | 0.00 | 1.01 | 0.05 | 59 | 1006.9 |
| 20260506171446 | 67 | 222 | 0.0 | 0.9 | 0.00 | 1.01 | 0.05 | 57 | 1006.8 |
| 20260506170946 | 67 | 220 | 0.0 | 2.6 | 0.00 | 1.01 | 0.05 | 58 | 1006.8 |
| 20260506170446 | 67 | 203 | 0.0 | 0.9 | 0.00 | 1.01 | 0.05 | 57 | 1006.7 |
| 20260506165946 | 68 | 259 | 0.0 | 1.7 | 0.00 | 1.01 | 0.05 | 56 | 1006.7 |
| 20260506165446 | 68 | 259 | 0.0 | 0.9 | 0.00 | 1.01 | 0.05 | 56 | 1006.7 |
| 20260506164946 | 68 | 241 | 0.0 | 1.7 | 0.00 | 1.01 | 0.05 | 54 | 1006.7 |
| 20260506164446 | 68 | 216 | 0.0 | 1.7 | 0.00 | 1.01 | 0.05 | 56 | 1006.7 |
| 20260506163946 | 68 | 213 | 0.9 | 2.6 | 0.00 | 1.01 | 0.05 | 55 | 1006.7 |
| 20260506163446 | 68 | 210 | 0.9 | 3.5 | 0.00 | 1.01 | 0.05 | 56 | 1006.8 |
| 20260506162946 | 68 | 194 | 0.9 | 2.6 | 0.00 | 1.01 | 0.05 | 56 | 1006.8 |
| 20260506162511 | 68 | 259 | 0.0 | 3.5 | 0.00 | 1.01 | 0.05 | 56 | 1006.9 |
| 20260506162446 | 68 | 269 | 0.9 | 4.3 | 0.00 | 1.01 | 0.05 | 56 | 1006.8 |
| 20260506161946 | 68 | 259 | 0.0 | 3.5 | 0.00 | 1.01 | 0.05 | 56 | 1006.9 |
| 20260506161446 | 68 | 263 | 0.9 | 0.9 | 0.00 | 1.01 | 0.05 | 59 | 1006.9 |
| 20260506160946 | 68 | 216 | 0.9 | 5.2 | 0.00 | 1.01 | 0.05 | 57 | 1007.0 |
| 20260506160446 | 67 | 231 | 0.0 | 0.9 | 0.00 | 1.01 | 0.05 | 57 | 1007.1 |
| 20260506155946 | 67 | 249 | 0.9 | 4.3 | 0.00 | 1.01 | 0.05 | 58 | 1007.1 |
| 20260506155446 | 68 | 257 | 1.7 | 4.3 | 0.00 | 1.01 | 0.05 | 56 | 1007.2 |
| 20260506154946 | 68 | 237 | 0.9 | 3.5 | 0.00 | 1.01 | 0.05 | 57 | 1007.2 |
| 20260506154446 | 68 | 269 | 0.9 | 2.6 | 0.00 | 1.01 | 0.05 | 60 | 1007.1 |
| 20260506153946 | 67 | 264 | 0.9 | 3.5 | 0.00 | 1.01 | 0.05 | 60 | 1007.2 |
| 20260506153446 | 67 | 223 | 0.9 | 7.0 | 0.00 | 1.01 | 0.05 | 60 | 1007.3 |
| 20260506152946 | 66 | 245 | 0.9 | 3.5 | 0.00 | 1.01 | 0.05 | 62 | 1007.4 |
| 20260506152446 | 66 | 207 | 0.9 | 4.3 | 0.00 | 1.01 | 0.05 | 59 | 1007.3 |
| 20260506151946 | 66 | 246 | 0.9 | 3.5 | 0.00 | 1.01 | 0.05 | 62 | 1007.4 |
| 20260506151447 | 66 | 197 | 0.9 | 2.6 | 0.00 | 1.01 | 0.05 | 62 | 1007.4 |
| 20260506150947 | 66 | 222 | 0.9 | 3.5 | 0.00 | 1.01 | 0.05 | 62 | 1007.5 |
| 20260506150446 | 66 | 166 | 0.9 | 2.6 | 0.00 | 1.01 | 0.05 | 64 | 1007.5 |
| 20260506145947 | 66 | 270 | 1.7 | 3.5 | 0.00 | 1.01 | 0.05 | 63 | 1007.5 |
| 20260506145447 | 66 | 249 | 1.7 | 7.0 | 0.00 | 1.01 | 0.05 | 63 | 1007.6 |
| 20260506144947 | 66 | 263 | 1.7 | 5.2 | 0.00 | 1.01 | 0.05 | 62 | 1007.7 |
| 20260506144447 | 66 | 240 | 1.7 | 4.3 | 0.00 | 1.01 | 0.05 | 60 | 1007.6 |
| 20260506143947 | 66 | 268 | 1.7 | 4.3 | 0.00 | 1.01 | 0.05 | 62 | 1007.5 |
| 20260506143447 | 66 | 238 | 2.6 | 7.0 | 0.00 | 1.01 | 0.05 | 63 | 1007.6 |
| 20260506142947 | 66 | 262 | 1.7 | 6.1 | 0.00 | 1.01 | 0.05 | 63 | 1007.5 |
| 20260506142447 | 66 | 269 | 0.9 | 3.5 | 0.00 | 1.01 | 0.05 | 63 | 1007.5 |
| 20260506141947 | 66 | 172 | 0.9 | 6.1 | 0.00 | 1.01 | 0.05 | 63 | 1007.5 |
| 20260506141447 | 66 | 255 | 0.9 | 4.3 | 0.00 | 1.01 | 0.05 | 64 | 1007.6 |